START_TIME,STEP,MOV.,EG07,t_acc.,EG08,t_acc.,EG09,t_acc.,EB05,t_acc.,EBP05,t_acc.
1979-07-05 09:00:23.580 ,0,0,0.,1.2,0.,1.2,0.,1.2,,0.0,,0.0
1979-07-05 09:00:24.780 ,0,0,0.,1.2,0.,1.2,0.,1.2,,0.0,,0.0
1979-07-05 09:00:25.980 ,0,0,1.,1.2,0.,1.2,0.,1.2,,0.0,,0.0
1979-07-05 09:00:27.180 ,0,0,0.,1.2,0.,1.2,0.,1.2,,0.0,,0.0
1979-07-05 09:00:28.380 ,0,0,0.,1.2,0.,1.2,0.,1.2,,0.0,,0.0
1979-07-05 09:00:29.580 ,0,0,0.,1.2,0.,1.2,0.,1.2,,0.0,,0.0
1979-07-05 09:00:30.780 ,0,0,0.,1.2,0.,1.2,0.,1.2,,0.0,,0.0
1979-07-05 09:00:31.980 ,0,0,0.,1.2,0.,1.2,0.,1.2,,0.0,,0.0
1979-07-05 09:00:33.180 ,0,0,0.,1.2,0.,1.2,0.,1.2,,0.0,,0.0
1979-07-05 09:00:34.380 ,0,0,0.,1.2,0.,1.2,0.,1.2,,0.0,,0.0
1979-07-05 09:00:35.580 ,0,0,0.,1.2,0.,1.2,0.,1.2,,0.0,,0.0
1979-07-05 09:00:36.780 ,0,0,1.,1.2,0.,1.2,0.,1.2,,0.0,,0.0
1979-07-05 09:00:37.980 ,0,0,0.,1.2,0.,1.2,0.,1.2,,0.0,,0.0
1979-07-05 09:00:39.180 ,0,0,0.,1.2,0.,1.2,0.,1.2,,0.0,,0.0
1979-07-05 09:00:40.380 ,0,0,0.,1.2,0.,1.2,0.,1.2,,0.0,,0.0
1979-07-05 09:00:41.580 ,0,0,0.,1.2,0.,1.2,0.,1.2,,0.0,,0.0
1979-07-05 09:00:42.780 ,0,0,0.,1.2,0.,1.2,0.,1.2,,0.0,,0.0
1979-07-05 09:00:43.980 ,0,0,0.,1.2,0.,1.2,0.,1.2,,0.0,,0.0
1979-07-05 09:00:45.180 ,0,0,0.,1.2,0.,1.2,0.,1.2,,0.0,,0.0
1979-07-05 09:00:46.380 ,0,0,0.,1.2,0.,1.2,0.,1.2,,0.0,,0.0
1979-07-05 09:00:47.580 ,0,0,0.,1.2,0.,1.2,0.,1.2,,0.0,,0.0
1979-07-05 09:00:48.780 ,0,0,0.,1.2,0.,1.2,0.,1.2,,0.0,,0.0
1979-07-05 09:00:49.980 ,0,0,0.,1.2,0.,1.2,0.,1.2,,0.0,,0.0
1979-07-05 09:00:51.180 ,0,0,0.,1.2,0.,1.2,0.,1.2,,0.0,,0.0
1979-07-05 09:00:52.380 ,0,0,0.,1.2,0.,1.2,0.,1.2,,0.0,,0.0
1979-07-05 09:00:53.580 ,0,0,0.,1.2,0.,1.2,0.,1.2,,0.0,,0.0
1979-07-05 09:00:54.780 ,0,0,1.,1.2,0.,1.2,0.,1.2,,0.0,,0.0
1979-07-05 09:00:55.980 ,0,0,0.,1.2,0.,1.2,0.,1.2,,0.0,,0.0
1979-07-05 09:00:57.180 ,0,0,0.,1.2,0.,1.2,0.,1.2,,0.0,,0.0
1979-07-05 09:00:58.380 ,0,0,0.,1.2,0.,1.2,0.,1.2,,0.0,,0.0
1979-07-05 09:00:59.580 ,0,0,0.,1.2,0.,1.2,0.,1.2,,0.0,,0.0
1979-07-05 09:01:00.780 ,0,0,1.,1.2,0.,1.2,0.,1.2,,0.0,,0.0
1979-07-05 09:01:01.980 ,0,0,0.,1.2,0.,1.2,0.,1.2,,0.0,,0.0
1979-07-05 09:01:03.180 ,0,0,0.,1.2,0.,1.2,0.,1.2,,0.0,,0.0
1979-07-05 09:01:04.380 ,0,0,0.,1.2,0.,1.2,0.,1.2,,0.0,,0.0
1979-07-05 09:01:05.580 ,0,0,1.,1.2,0.,1.2,0.,1.2,,0.0,,0.0
1979-07-05 09:01:06.780 ,0,0,0.,1.2,0.,1.2,0.,1.2,,0.0,,0.0
1979-07-05 09:01:07.980 ,0,0,0.,1.2,0.,1.2,0.,1.2,,0.0,,0.0
1979-07-05 09:01:09.180 ,0,0,0.,1.2,0.,1.2,0.,1.2,,0.0,,0.0
1979-07-05 09:01:10.380 ,0,0,2.,1.2,2.,1.2,1.,1.2,,0.0,,0.0
1979-07-05 09:01:11.580 ,0,0,1.,1.2,0.,1.2,0.,1.2,,0.0,,0.0
1979-07-05 09:01:12.780 ,0,0,0.,1.2,0.,1.2,0.,1.2,,0.0,,0.0
1979-07-05 09:01:13.980 ,0,0,0.,1.2,0.,1.2,0.,1.2,,0.0,,0.0
1979-07-05 09:01:15.180 ,0,0,0.,1.2,0.,1.2,0.,1.2,,0.0,,0.0
1979-07-05 09:01:16.380 ,0,0,0.,1.2,0.,1.2,0.,1.2,,0.0,,0.0
1979-07-05 09:01:17.580 ,0,0,0.,1.2,0.,1.2,0.,1.2,,0.0,,0.0
1979-07-05 09:01:18.780 ,0,0,0.,1.2,0.,1.2,0.,1.2,,0.0,,0.0
1979-07-05 09:01:19.980 ,0,0,1.,1.2,0.,1.2,0.,1.2,,0.0,,0.0
1979-07-05 09:01:21.180 ,0,0,0.,1.2,0.,1.2,0.,1.2,,0.0,,0.0
1979-07-05 09:01:22.380 ,0,0,0.,1.2,0.,1.2,0.,1.2,,0.0,,0.0
1979-07-05 09:01:23.580 ,0,0,0.,1.2,0.,1.2,0.,1.2,,0.0,,0.0
1979-07-05 09:01:24.780 ,0,0,0.,1.2,0.,1.2,0.,1.2,,0.0,,0.0
1979-07-05 09:01:25.980 ,0,0,0.,1.2,0.,1.2,0.,1.2,,0.0,,0.0
1979-07-05 09:01:27.180 ,0,0,0.,1.2,0.,1.2,0.,1.2,,0.0,,0.0
1979-07-05 09:01:28.380 ,0,0,0.,1.2,0.,1.2,0.,1.2,,0.0,,0.0
1979-07-05 09:01:29.580 ,0,0,0.,1.2,0.,1.2,0.,1.2,,0.0,,0.0
1979-07-05 09:01:30.780 ,0,0,0.,1.2,0.,1.2,0.,1.2,,0.0,,0.0
1979-07-05 09:01:31.980 ,0,0,0.,1.2,0.,1.2,0.,1.2,,0.0,,0.0
1979-07-05 09:01:33.180 ,0,0,1.,1.2,0.,1.2,0.,1.2,,0.0,,0.0
1979-07-05 09:01:34.380 ,0,0,0.,1.2,0.,1.2,0.,1.2,,0.0,,0.0
1979-07-05 09:01:35.580 ,1,0,0.,1.2,0.,1.2,0.,1.2,,0.0,,0.0
1979-07-05 09:01:36.780 ,1,0,0.,1.2,0.,1.2,0.,1.2,,0.0,,0.0
1979-07-05 09:01:37.980 ,1,0,1.,1.2,0.,1.2,0.,1.2,,0.0,,0.0
1979-07-05 09:01:39.180 ,1,0,0.,1.2,0.,1.2,0.,1.2,,0.0,,0.0
1979-07-05 09:01:40.380 ,1,0,0.,1.2,0.,1.2,0.,1.2,,0.0,,0.0
1979-07-05 09:01:41.580 ,1,0,0.,1.2,0.,1.2,0.,1.2,,0.0,,0.0
1979-07-05 09:01:42.780 ,1,0,0.,1.2,0.,1.2,0.,1.2,,0.0,,0.0
1979-07-05 09:01:43.980 ,1,0,0.,1.2,0.,1.2,0.,1.2,,0.0,,0.0
1979-07-05 09:01:45.180 ,1,0,0.,1.2,0.,1.2,0.,1.2,,0.0,,0.0
1979-07-05 09:01:46.380 ,1,0,0.,1.2,0.,1.2,0.,1.2,,0.0,,0.0
1979-07-05 09:01:47.580 ,1,0,1.,1.2,0.,1.2,0.,1.2,,0.0,,0.0
1979-07-05 09:01:48.780 ,1,0,0.,1.2,0.,1.2,0.,1.2,,0.0,,0.0
1979-07-05 09:01:49.980 ,1,0,0.,1.2,0.,1.2,0.,1.2,,0.0,,0.0
1979-07-05 09:01:51.180 ,1,0,0.,1.2,0.,1.2,0.,1.2,,0.0,,0.0
1979-07-05 09:01:52.380 ,1,0,0.,1.2,0.,1.2,0.,1.2,,0.0,,0.0
1979-07-05 09:01:53.580 ,1,0,0.,1.2,0.,1.2,0.,1.2,,0.0,,0.0
1979-07-05 09:01:54.780 ,1,0,1.,1.2,0.,1.2,0.,1.2,,0.0,,0.0
1979-07-05 09:01:55.980 ,1,0,1.,1.2,0.,1.2,0.,1.2,,0.0,,0.0
1979-07-05 09:01:57.180 ,1,0,0.,1.2,0.,1.2,0.,1.2,,0.0,,0.0
1979-07-05 09:01:58.380 ,1,0,0.,1.2,0.,1.2,0.,1.2,,0.0,,0.0
1979-07-05 09:01:59.580 ,1,0,0.,1.2,0.,1.2,0.,1.2,,0.0,,0.0
1979-07-05 09:02:00.780 ,1,0,0.,1.2,0.,1.2,0.,1.2,,0.0,,0.0
1979-07-05 09:02:01.980 ,1,0,0.,1.2,0.,1.2,0.,1.2,,0.0,,0.0
1979-07-05 09:02:03.180 ,1,0,0.,1.2,0.,1.2,0.,1.2,,0.0,,0.0
1979-07-05 09:02:04.380 ,1,0,0.,1.2,0.,1.2,0.,1.2,,0.0,,0.0
1979-07-05 09:02:05.580 ,1,0,0.,1.2,0.,1.2,0.,1.2,,0.0,,0.0
1979-07-05 09:02:06.780 ,1,0,1.,1.2,0.,1.2,0.,1.2,,0.0,,0.0
1979-07-05 09:02:07.980 ,1,0,0.,1.2,0.,1.2,0.,1.2,,0.0,,0.0
1979-07-05 09:02:09.180 ,1,0,0.,1.2,0.,1.2,0.,1.2,,0.0,,0.0
1979-07-05 09:02:10.380 ,1,0,0.,1.2,0.,1.2,0.,1.2,,0.0,,0.0
1979-07-05 09:02:11.580 ,1,0,0.,1.2,0.,1.2,0.,1.2,,0.0,,0.0
1979-07-05 09:02:12.780 ,1,0,1.,1.2,0.,1.2,0.,1.2,,0.0,,0.0
1979-07-05 09:02:13.980 ,1,0,0.,1.2,0.,1.2,0.,1.2,,0.0,,0.0
1979-07-05 09:02:15.180 ,1,0,1.,1.2,0.,1.2,0.,1.2,,0.0,,0.0
1979-07-05 09:02:16.380 ,1,0,0.,1.2,0.,1.2,0.,1.2,,0.0,,0.0
1979-07-05 09:02:17.580 ,1,0,0.,1.2,0.,1.2,0.,1.2,,0.0,,0.0
1979-07-05 09:02:18.780 ,1,0,0.,1.2,0.,1.2,0.,1.2,,0.0,,0.0
1979-07-05 09:02:19.980 ,1,0,0.,1.2,0.,1.2,0.,1.2,,0.0,,0.0
1979-07-05 09:02:21.180 ,1,0,1.,1.2,0.,1.2,0.,1.2,,0.0,,0.0
1979-07-05 09:02:22.380 ,1,0,1.,1.2,0.,1.2,0.,1.2,,0.0,,0.0
1979-07-05 09:02:23.580 ,2,0,1.,1.2,0.,1.2,0.,1.2,,0.0,,0.0
1979-07-05 09:02:24.780 ,2,0,0.,1.2,0.,1.2,0.,1.2,,0.0,,0.0
1979-07-05 09:02:25.980 ,2,0,0.,1.2,0.,1.2,0.,1.2,,0.0,,0.0
1979-07-05 09:02:27.180 ,2,0,0.,1.2,0.,1.2,0.,1.2,,0.0,,0.0
1979-07-05 09:02:28.380 ,2,0,0.,1.2,0.,1.2,0.,1.2,,0.0,,0.0
1979-07-05 09:02:29.580 ,2,0,0.,1.2,0.,1.2,0.,1.2,,0.0,,0.0
1979-07-05 09:02:30.780 ,2,0,1.,1.2,1.,1.2,0.,1.2,,0.0,,0.0
1979-07-05 09:02:31.980 ,2,0,0.,1.2,0.,1.2,0.,1.2,,0.0,,0.0
1979-07-05 09:02:33.180 ,2,0,0.,1.2,0.,1.2,0.,1.2,,0.0,,0.0
1979-07-05 09:02:34.380 ,2,0,0.,1.2,0.,1.2,0.,1.2,,0.0,,0.0
1979-07-05 09:02:35.580 ,2,0,0.,1.2,0.,1.2,0.,1.2,,0.0,,0.0
1979-07-05 09:02:36.780 ,2,0,1.,1.2,0.,1.2,0.,1.2,,0.0,,0.0
1979-07-05 09:02:37.980 ,2,0,0.,1.2,0.,1.2,0.,1.2,,0.0,,0.0
1979-07-05 09:02:39.180 ,2,0,1.,1.2,0.,1.2,0.,1.2,,0.0,,0.0
1979-07-05 09:02:40.380 ,2,0,0.,1.2,0.,1.2,0.,1.2,,0.0,,0.0
1979-07-05 09:02:41.580 ,2,0,0.,1.2,0.,1.2,0.,1.2,,0.0,,0.0
1979-07-05 09:02:42.780 ,2,0,0.,1.2,0.,1.2,0.,1.2,,0.0,,0.0
1979-07-05 09:02:43.980 ,2,0,0.,1.2,0.,1.2,0.,1.2,,0.0,,0.0
1979-07-05 09:02:45.180 ,2,0,0.,1.2,0.,1.2,0.,1.2,,0.0,,0.0
1979-07-05 09:02:46.380 ,2,0,1.,1.2,0.,1.2,0.,1.2,,0.0,,0.0
1979-07-05 09:02:47.580 ,2,0,0.,1.2,0.,1.2,0.,1.2,,0.0,,0.0
1979-07-05 09:02:48.780 ,2,0,0.,1.2,0.,1.2,0.,1.2,,0.0,,0.0
1979-07-05 09:02:49.980 ,2,0,0.,1.2,0.,1.2,0.,1.2,,0.0,,0.0
1979-07-05 09:02:51.180 ,2,0,2.,1.2,0.,1.2,0.,1.2,,0.0,,0.0
1979-07-05 09:02:52.380 ,2,0,1.,1.2,0.,1.2,0.,1.2,,0.0,,0.0
1979-07-05 09:02:53.580 ,2,0,1.,1.2,1.,1.2,0.,1.2,,0.0,,0.0
1979-07-05 09:02:54.780 ,2,0,0.,1.2,0.,1.2,0.,1.2,,0.0,,0.0
1979-07-05 09:02:55.980 ,2,0,0.,1.2,0.,1.2,0.,1.2,,0.0,,0.0
1979-07-05 09:02:57.180 ,2,0,0.,1.2,0.,1.2,0.,1.2,,0.0,,0.0
1979-07-05 09:02:58.380 ,2,0,0.,1.2,0.,1.2,0.,1.2,,0.0,,0.0
1979-07-05 09:02:59.580 ,2,0,2.,1.2,2.,1.2,1.,1.2,,0.0,,0.0
1979-07-05 09:03:00.780 ,2,0,0.,1.2,0.,1.2,0.,1.2,,0.0,,0.0
1979-07-05 09:03:01.980 ,2,0,0.,1.2,0.,1.2,0.,1.2,,0.0,,0.0
1979-07-05 09:03:03.180 ,2,0,1.,1.2,0.,1.2,0.,1.2,,0.0,,0.0
1979-07-05 09:03:04.380 ,2,0,0.,1.2,0.,1.2,0.,1.2,,0.0,,0.0
1979-07-05 09:03:05.580 ,2,0,0.,1.2,0.,1.2,0.,1.2,,0.0,,0.0
1979-07-05 09:03:06.780 ,2,0,0.,1.2,0.,1.2,0.,1.2,,0.0,,0.0
1979-07-05 09:03:07.980 ,2,0,0.,1.2,0.,1.2,0.,1.2,,0.0,,0.0
1979-07-05 09:03:09.180 ,2,0,0.,1.2,0.,1.2,0.,1.2,,0.0,,0.0
1979-07-05 09:03:10.380 ,2,0,2.,1.2,2.,1.2,0.,1.2,,0.0,,0.0
1979-07-05 09:03:11.580 ,3,0,0.,1.2,0.,1.2,0.,1.2,,0.0,,0.0
1979-07-05 09:03:12.780 ,3,0,0.,1.2,0.,1.2,0.,1.2,,0.0,,0.0
1979-07-05 09:03:13.980 ,3,0,1.,1.2,1.,1.2,0.,1.2,,0.0,,0.0
1979-07-05 09:03:15.180 ,3,0,0.,1.2,0.,1.2,0.,1.2,,0.0,,0.0
1979-07-05 09:03:16.380 ,3,0,1.,1.2,1.,1.2,0.,1.2,,0.0,,0.0
1979-07-05 09:03:17.580 ,3,0,0.,1.2,0.,1.2,0.,1.2,,0.0,,0.0
1979-07-05 09:03:18.780 ,3,0,1.,1.2,1.,1.2,0.,1.2,,0.0,,0.0
1979-07-05 09:03:19.980 ,3,0,0.,1.2,0.,1.2,0.,1.2,,0.0,,0.0
1979-07-05 09:03:21.180 ,3,0,1.,1.2,1.,1.2,1.,1.2,,0.0,,0.0
1979-07-05 09:03:22.380 ,3,0,0.,1.2,0.,1.2,0.,1.2,,0.0,,0.0
1979-07-05 09:03:23.580 ,3,0,1.,1.2,0.,1.2,0.,1.2,,0.0,,0.0
1979-07-05 09:03:24.780 ,3,0,0.,1.2,0.,1.2,0.,1.2,,0.0,,0.0
1979-07-05 09:03:25.980 ,3,0,0.,1.2,0.,1.2,0.,1.2,,0.0,,0.0
1979-07-05 09:03:27.180 ,3,0,0.,1.2,0.,1.2,0.,1.2,,0.0,,0.0
1979-07-05 09:03:28.380 ,3,0,0.,1.2,0.,1.2,0.,1.2,,0.0,,0.0
1979-07-05 09:03:29.580 ,3,0,0.,1.2,0.,1.2,0.,1.2,,0.0,,0.0
1979-07-05 09:03:30.780 ,3,0,0.,1.2,0.,1.2,0.,1.2,,0.0,,0.0
1979-07-05 09:03:31.980 ,3,0,0.,1.2,0.,1.2,0.,1.2,,0.0,,0.0
1979-07-05 09:03:33.180 ,3,0,0.,1.2,0.,1.2,0.,1.2,,0.0,,0.0
1979-07-05 09:03:34.380 ,3,0,0.,1.2,0.,1.2,0.,1.2,,0.0,,0.0
1979-07-05 09:03:35.580 ,3,0,0.,1.2,0.,1.2,0.,1.2,,0.0,,0.0
1979-07-05 09:03:36.780 ,3,0,1.,1.2,1.,1.2,0.,1.2,,0.0,,0.0
1979-07-05 09:03:37.980 ,3,0,1.,1.2,1.,1.2,1.,1.2,,0.0,,0.0
1979-07-05 09:03:39.180 ,3,0,0.,1.2,0.,1.2,0.,1.2,,0.0,,0.0
1979-07-05 09:03:40.380 ,3,0,0.,1.2,0.,1.2,0.,1.2,,0.0,,0.0
1979-07-05 09:03:41.580 ,3,0,2.,1.2,1.,1.2,1.,1.2,,0.0,,0.0
1979-07-05 09:03:42.780 ,3,0,0.,1.2,0.,1.2,0.,1.2,,0.0,,0.0
1979-07-05 09:03:43.980 ,3,0,0.,1.2,0.,1.2,0.,1.2,,0.0,,0.0
1979-07-05 09:03:45.180 ,3,0,1.,1.2,0.,1.2,0.,1.2,,0.0,,0.0
1979-07-05 09:03:46.380 ,3,0,0.,1.2,0.,1.2,0.,1.2,,0.0,,0.0
1979-07-05 09:03:47.580 ,3,0,0.,1.2,0.,1.2,0.,1.2,,0.0,,0.0
1979-07-05 09:03:48.780 ,3,0,0.,1.2,0.,1.2,0.,1.2,,0.0,,0.0
1979-07-05 09:03:49.980 ,3,0,0.,1.2,0.,1.2,0.,1.2,,0.0,,0.0
1979-07-05 09:03:51.180 ,3,0,0.,1.2,0.,1.2,0.,1.2,,0.0,,0.0
1979-07-05 09:03:52.380 ,3,0,0.,1.2,0.,1.2,0.,1.2,,0.0,,0.0
1979-07-05 09:03:53.580 ,3,0,1.,1.2,0.,1.2,0.,1.2,,0.0,,0.0
1979-07-05 09:03:54.780 ,3,0,1.,1.2,1.,1.2,0.,1.2,,0.0,,0.0
1979-07-05 09:03:55.980 ,3,0,0.,1.2,0.,1.2,0.,1.2,,0.0,,0.0
1979-07-05 09:03:57.180 ,3,0,0.,1.2,0.,1.2,0.,1.2,,0.0,,0.0
1979-07-05 09:03:58.380 ,3,0,0.,1.2,0.,1.2,0.,1.2,,0.0,,0.0
1979-07-05 09:03:59.580 ,4,0,0.,1.2,0.,1.2,0.,1.2,,0.0,,0.0
1979-07-05 09:04:00.780 ,4,0,0.,1.2,0.,1.2,0.,1.2,,0.0,,0.0
1979-07-05 09:04:01.980 ,4,0,0.,1.2,0.,1.2,0.,1.2,,0.0,,0.0
1979-07-05 09:04:03.180 ,4,0,0.,1.2,0.,1.2,0.,1.2,,0.0,,0.0
1979-07-05 09:04:04.380 ,4,0,0.,1.2,0.,1.2,0.,1.2,,0.0,,0.0
1979-07-05 09:04:05.580 ,4,0,0.,1.2,0.,1.2,0.,1.2,,0.0,,0.0
1979-07-05 09:04:06.780 ,4,0,1.,1.2,1.,1.2,0.,1.2,,0.0,,0.0
1979-07-05 09:04:07.980 ,4,0,1.,1.2,0.,1.2,0.,1.2,,0.0,,0.0
1979-07-05 09:04:09.180 ,4,0,1.,1.2,1.,1.2,1.,1.2,,0.0,,0.0
1979-07-05 09:04:10.380 ,4,0,0.,1.2,0.,1.2,0.,1.2,,0.0,,0.0
1979-07-05 09:04:11.580 ,4,0,0.,1.2,0.,1.2,0.,1.2,,0.0,,0.0
1979-07-05 09:04:12.780 ,4,0,1.,1.2,0.,1.2,0.,1.2,,0.0,,0.0
1979-07-05 09:04:13.980 ,4,0,1.,1.2,0.,1.2,0.,1.2,,0.0,,0.0
1979-07-05 09:04:15.180 ,4,0,0.,1.2,0.,1.2,0.,1.2,,0.0,,0.0
1979-07-05 09:04:16.380 ,4,0,2.,1.2,0.,1.2,0.,1.2,,0.0,,0.0
1979-07-05 09:04:17.580 ,4,0,0.,1.2,0.,1.2,0.,1.2,,0.0,,0.0
1979-07-05 09:04:18.780 ,4,0,0.,1.2,0.,1.2,0.,1.2,,0.0,,0.0
1979-07-05 09:04:19.980 ,4,0,0.,1.2,0.,1.2,0.,1.2,,0.0,,0.0
1979-07-05 09:04:21.180 ,4,0,1.,1.2,0.,1.2,0.,1.2,,0.0,,0.0
1979-07-05 09:04:22.380 ,4,0,0.,1.2,0.,1.2,0.,1.2,,0.0,,0.0
1979-07-05 09:04:23.580 ,4,0,0.,1.2,0.,1.2,0.,1.2,,0.0,,0.0
1979-07-05 09:04:24.780 ,4,0,0.,1.2,0.,1.2,0.,1.2,,0.0,,0.0
1979-07-05 09:04:25.980 ,4,0,0.,1.2,0.,1.2,0.,1.2,,0.0,,0.0
1979-07-05 09:04:27.180 ,4,0,1.,1.2,0.,1.2,0.,1.2,,0.0,,0.0
1979-07-05 09:04:28.380 ,4,0,1.,1.2,0.,1.2,0.,1.2,,0.0,,0.0
1979-07-05 09:04:29.580 ,4,0,0.,1.2,0.,1.2,0.,1.2,,0.0,,0.0
1979-07-05 09:04:30.780 ,4,0,0.,1.2,0.,1.2,0.,1.2,,0.0,,0.0
1979-07-05 09:04:31.980 ,4,0,0.,1.2,0.,1.2,0.,1.2,,0.0,,0.0
1979-07-05 09:04:33.180 ,4,0,0.,1.2,0.,1.2,0.,1.2,,0.0,,0.0
1979-07-05 09:04:34.380 ,4,0,0.,1.2,0.,1.2,0.,1.2,,0.0,,0.0
1979-07-05 09:04:35.580 ,4,0,0.,1.2,0.,1.2,0.,1.2,,0.0,,0.0
1979-07-05 09:04:36.780 ,4,0,0.,1.2,0.,1.2,0.,1.2,,0.0,,0.0
1979-07-05 09:04:37.980 ,4,0,0.,1.2,0.,1.2,0.,1.2,,0.0,,0.0
1979-07-05 09:04:39.180 ,4,0,0.,1.2,0.,1.2,0.,1.2,,0.0,,0.0
1979-07-05 09:04:40.380 ,4,0,1.,1.2,1.,1.2,0.,1.2,,0.0,,0.0
1979-07-05 09:04:41.580 ,4,0,0.,1.2,0.,1.2,0.,1.2,,0.0,,0.0
1979-07-05 09:04:42.780 ,4,0,0.,1.2,0.,1.2,0.,1.2,,0.0,,0.0
1979-07-05 09:04:43.980 ,4,0,0.,1.2,0.,1.2,0.,1.2,,0.0,,0.0
1979-07-05 09:04:45.180 ,4,0,0.,1.2,0.,1.2,0.,1.2,,0.0,,0.0
1979-07-05 09:04:46.380 ,4,0,0.,1.2,0.,1.2,0.,1.2,,0.0,,0.0
1979-07-05 09:04:47.580 ,5,0,1.,1.2,0.,1.2,0.,1.2,,0.0,,0.0
1979-07-05 09:04:48.780 ,5,0,0.,1.2,0.,1.2,0.,1.2,,0.0,,0.0
1979-07-05 09:04:49.980 ,5,0,0.,1.2,0.,1.2,0.,1.2,,0.0,,0.0
1979-07-05 09:04:51.180 ,5,0,0.,1.2,0.,1.2,0.,1.2,,0.0,,0.0
1979-07-05 09:04:52.380 ,5,0,0.,1.2,0.,1.2,0.,1.2,,0.0,,0.0
1979-07-05 09:04:53.580 ,5,0,0.,1.2,0.,1.2,0.,1.2,,0.0,,0.0
1979-07-05 09:04:54.780 ,5,0,1.,1.2,1.,1.2,0.,1.2,,0.0,,0.0
1979-07-05 09:04:55.980 ,5,0,2.,1.2,1.,1.2,0.,1.2,,0.0,,0.0
1979-07-05 09:04:57.180 ,5,0,0.,1.2,0.,1.2,0.,1.2,,0.0,,0.0
1979-07-05 09:04:58.380 ,5,0,0.,1.2,0.,1.2,0.,1.2,,0.0,,0.0
1979-07-05 09:04:59.580 ,5,0,0.,1.2,0.,1.2,0.,1.2,,0.0,,0.0
1979-07-05 09:05:00.780 ,5,0,0.,1.2,0.,1.2,0.,1.2,,0.0,,0.0
1979-07-05 09:05:01.980 ,5,0,0.,1.2,0.,1.2,0.,1.2,,0.0,,0.0
1979-07-05 09:05:03.180 ,5,0,0.,1.2,0.,1.2,0.,1.2,,0.0,,0.0
1979-07-05 09:05:04.380 ,5,0,0.,1.2,0.,1.2,0.,1.2,,0.0,,0.0
1979-07-05 09:05:05.580 ,5,0,0.,1.2,0.,1.2,0.,1.2,,0.0,,0.0
1979-07-05 09:05:06.780 ,5,0,0.,1.2,0.,1.2,0.,1.2,,0.0,,0.0
1979-07-05 09:05:07.980 ,5,0,2.,1.2,0.,1.2,0.,1.2,,0.0,,0.0
1979-07-05 09:05:09.180 ,5,0,0.,1.2,0.,1.2,0.,1.2,,0.0,,0.0
1979-07-05 09:05:10.380 ,5,0,0.,1.2,0.,1.2,0.,1.2,,0.0,,0.0
1979-07-05 09:05:11.580 ,5,0,1.,1.2,1.,1.2,0.,1.2,,0.0,,0.0
1979-07-05 09:05:12.780 ,5,0,1.,1.2,0.,1.2,0.,1.2,,0.0,,0.0
1979-07-05 09:05:13.980 ,5,0,0.,1.2,0.,1.2,0.,1.2,,0.0,,0.0
1979-07-05 09:05:15.180 ,5,0,0.,1.2,0.,1.2,0.,1.2,,0.0,,0.0
1979-07-05 09:05:16.380 ,5,0,0.,1.2,0.,1.2,0.,1.2,,0.0,,0.0
1979-07-05 09:05:17.580 ,5,0,0.,1.2,0.,1.2,0.,1.2,,0.0,,0.0
1979-07-05 09:05:18.780 ,5,0,1.,1.2,1.,1.2,0.,1.2,,0.0,,0.0
1979-07-05 09:05:19.980 ,5,0,0.,1.2,0.,1.2,0.,1.2,,0.0,,0.0
1979-07-05 09:05:21.180 ,5,0,0.,1.2,0.,1.2,0.,1.2,,0.0,,0.0
1979-07-05 09:05:22.380 ,5,0,0.,1.2,0.,1.2,0.,1.2,,0.0,,0.0
1979-07-05 09:05:23.580 ,5,0,0.,1.2,0.,1.2,0.,1.2,,0.0,,0.0
1979-07-05 09:05:24.780 ,5,0,0.,1.2,0.,1.2,0.,1.2,,0.0,,0.0
1979-07-05 09:05:25.980 ,5,0,0.,1.2,0.,1.2,0.,1.2,,0.0,,0.0
1979-07-05 09:05:27.180 ,5,0,0.,1.2,0.,1.2,0.,1.2,,0.0,,0.0
1979-07-05 09:05:28.380 ,5,0,0.,1.2,0.,1.2,0.,1.2,,0.0,,0.0
1979-07-05 09:05:29.580 ,5,0,0.,1.2,0.,1.2,0.,1.2,,0.0,,0.0
1979-07-05 09:05:30.780 ,5,0,0.,1.2,0.,1.2,0.,1.2,,0.0,,0.0
1979-07-05 09:05:31.980 ,5,0,0.,1.2,0.,1.2,0.,1.2,,0.0,,0.0
1979-07-05 09:05:33.180 ,5,0,1.,1.2,0.,1.2,0.,1.2,,0.0,,0.0
1979-07-05 09:05:34.380 ,5,0,0.,1.2,0.,1.2,0.,1.2,,0.0,,0.0
1979-07-05 09:05:35.580 ,6,0,0.,1.2,0.,1.2,0.,1.2,,0.0,,0.0
1979-07-05 09:05:36.780 ,6,0,1.,1.2,1.,1.2,1.,1.2,,0.0,,0.0
1979-07-05 09:05:37.980 ,6,0,1.,1.2,0.,1.2,0.,1.2,,0.0,,0.0
1979-07-05 09:05:39.180 ,6,0,0.,1.2,0.,1.2,0.,1.2,,0.0,,0.0
1979-07-05 09:05:40.380 ,6,0,0.,1.2,0.,1.2,0.,1.2,,0.0,,0.0
1979-07-05 09:05:41.580 ,6,0,0.,1.2,0.,1.2,0.,1.2,,0.0,,0.0
1979-07-05 09:05:42.780 ,6,0,0.,1.2,0.,1.2,0.,1.2,,0.0,,0.0
1979-07-05 09:05:43.980 ,6,0,0.,1.2,0.,1.2,0.,1.2,,0.0,,0.0
1979-07-05 09:05:45.180 ,6,0,0.,1.2,0.,1.2,0.,1.2,,0.0,,0.0
1979-07-05 09:05:46.380 ,6,0,2.,1.2,1.,1.2,0.,1.2,,0.0,,0.0
1979-07-05 09:05:47.580 ,6,0,0.,1.2,0.,1.2,0.,1.2,,0.0,,0.0
1979-07-05 09:05:48.780 ,6,0,0.,1.2,0.,1.2,0.,1.2,,0.0,,0.0
1979-07-05 09:05:49.980 ,6,0,1.,1.2,1.,1.2,1.,1.2,,0.0,,0.0
1979-07-05 09:05:51.180 ,6,0,0.,1.2,0.,1.2,0.,1.2,,0.0,,0.0
1979-07-05 09:05:52.380 ,6,0,0.,1.2,0.,1.2,0.,1.2,,0.0,,0.0
1979-07-05 09:05:53.580 ,6,0,0.,1.2,0.,1.2,0.,1.2,,0.0,,0.0
1979-07-05 09:05:54.780 ,6,0,0.,1.2,0.,1.2,0.,1.2,,0.0,,0.0
1979-07-05 09:05:55.980 ,6,0,0.,1.2,0.,1.2,0.,1.2,,0.0,,0.0
1979-07-05 09:05:57.180 ,6,0,0.,1.2,0.,1.2,0.,1.2,,0.0,,0.0
1979-07-05 09:05:58.380 ,6,0,1.,1.2,0.,1.2,0.,1.2,,0.0,,0.0
1979-07-05 09:05:59.580 ,6,0,0.,1.2,0.,1.2,0.,1.2,,0.0,,0.0
1979-07-05 09:06:00.780 ,6,0,0.,1.2,0.,1.2,0.,1.2,,0.0,,0.0
1979-07-05 09:06:01.980 ,6,0,0.,1.2,0.,1.2,0.,1.2,,0.0,,0.0
1979-07-05 09:06:03.180 ,6,0,0.,1.2,0.,1.2,0.,1.2,,0.0,,0.0
1979-07-05 09:06:04.380 ,6,0,0.,1.2,0.,1.2,0.,1.2,,0.0,,0.0
1979-07-05 09:06:05.580 ,6,0,0.,1.2,0.,1.2,0.,1.2,,0.0,,0.0
1979-07-05 09:06:06.780 ,6,0,0.,1.2,0.,1.2,0.,1.2,,0.0,,0.0
1979-07-05 09:06:07.980 ,6,0,0.,1.2,0.,1.2,0.,1.2,,0.0,,0.0
1979-07-05 09:06:09.180 ,6,0,1.,1.2,1.,1.2,0.,1.2,,0.0,,0.0
1979-07-05 09:06:10.380 ,6,0,0.,1.2,0.,1.2,0.,1.2,,0.0,,0.0
1979-07-05 09:06:11.580 ,6,0,1.,1.2,1.,1.2,1.,1.2,,0.0,,0.0
1979-07-05 09:06:12.780 ,6,0,2.,1.2,1.,1.2,0.,1.2,,0.0,,0.0
1979-07-05 09:06:13.980 ,6,0,0.,1.2,0.,1.2,0.,1.2,,0.0,,0.0
1979-07-05 09:06:15.180 ,6,0,0.,1.2,0.,1.2,0.,1.2,,0.0,,0.0
1979-07-05 09:06:16.380 ,6,0,0.,1.2,0.,1.2,0.,1.2,,0.0,,0.0
1979-07-05 09:06:17.580 ,6,0,0.,1.2,0.,1.2,0.,1.2,,0.0,,0.0
1979-07-05 09:06:18.780 ,6,0,1.,1.2,0.,1.2,0.,1.2,,0.0,,0.0
1979-07-05 09:06:19.980 ,6,0,1.,1.2,1.,1.2,0.,1.2,,0.0,,0.0
1979-07-05 09:06:21.180 ,6,0,0.,1.2,0.,1.2,0.,1.2,,0.0,,0.0
1979-07-05 09:06:22.380 ,6,0,1.,1.2,0.,1.2,0.,1.2,,0.0,,0.0
1979-07-05 09:06:23.580 ,7,0,0.,1.2,0.,1.2,0.,1.2,,0.0,,0.0
1979-07-05 09:06:24.780 ,7,0,0.,1.2,0.,1.2,0.,1.2,,0.0,,0.0
1979-07-05 09:06:25.980 ,7,0,0.,1.2,0.,1.2,0.,1.2,,0.0,,0.0
1979-07-05 09:06:27.180 ,7,0,0.,1.2,0.,1.2,0.,1.2,,0.0,,0.0
1979-07-05 09:06:28.380 ,7,0,0.,1.2,0.,1.2,0.,1.2,,0.0,,0.0
1979-07-05 09:06:29.580 ,7,0,0.,1.2,0.,1.2,0.,1.2,,0.0,,0.0
1979-07-05 09:06:30.780 ,7,0,0.,1.2,0.,1.2,0.,1.2,,0.0,,0.0
1979-07-05 09:06:31.980 ,7,0,1.,1.2,0.,1.2,0.,1.2,,0.0,,0.0
1979-07-05 09:06:33.180 ,7,0,0.,1.2,0.,1.2,0.,1.2,,0.0,,0.0
1979-07-05 09:06:34.380 ,7,0,0.,1.2,0.,1.2,0.,1.2,,0.0,,0.0
1979-07-05 09:06:35.580 ,7,0,0.,1.2,0.,1.2,0.,1.2,,0.0,,0.0
1979-07-05 09:06:36.780 ,7,0,0.,1.2,0.,1.2,0.,1.2,,0.0,,0.0
1979-07-05 09:06:37.980 ,7,0,0.,1.2,0.,1.2,0.,1.2,,0.0,,0.0
1979-07-05 09:06:39.180 ,7,0,0.,1.2,0.,1.2,0.,1.2,,0.0,,0.0
1979-07-05 09:06:40.380 ,7,0,1.,1.2,1.,1.2,0.,1.2,,0.0,,0.0
1979-07-05 09:06:41.580 ,7,0,0.,1.2,0.,1.2,0.,1.2,,0.0,,0.0
1979-07-05 09:06:42.780 ,7,0,0.,1.2,0.,1.2,0.,1.2,,0.0,,0.0
1979-07-05 09:06:43.980 ,7,0,0.,1.2,0.,1.2,0.,1.2,,0.0,,0.0
1979-07-05 09:06:45.180 ,7,0,0.,1.2,0.,1.2,0.,1.2,,0.0,,0.0
1979-07-05 09:06:46.380 ,7,0,1.,1.2,1.,1.2,0.,1.2,,0.0,,0.0
1979-07-05 09:06:47.580 ,7,0,1.,1.2,0.,1.2,0.,1.2,,0.0,,0.0
1979-07-05 09:06:48.780 ,7,0,0.,1.2,0.,1.2,0.,1.2,,0.0,,0.0
1979-07-05 09:06:49.980 ,7,0,0.,1.2,0.,1.2,0.,1.2,,0.0,,0.0
1979-07-05 09:06:51.180 ,7,0,0.,1.2,0.,1.2,0.,1.2,,0.0,,0.0
1979-07-05 09:06:52.380 ,7,0,0.,1.2,0.,1.2,0.,1.2,,0.0,,0.0
1979-07-05 09:06:53.580 ,7,0,0.,1.2,0.,1.2,0.,1.2,,0.0,,0.0
1979-07-05 09:06:54.780 ,7,0,0.,1.2,0.,1.2,0.,1.2,,0.0,,0.0
1979-07-05 09:06:55.980 ,7,0,0.,1.2,0.,1.2,0.,1.2,,0.0,,0.0
1979-07-05 09:06:57.180 ,7,0,1.,1.2,0.,1.2,0.,1.2,,0.0,,0.0
1979-07-05 09:06:58.380 ,7,0,0.,1.2,0.,1.2,0.,1.2,,0.0,,0.0
1979-07-05 09:06:59.580 ,7,0,0.,1.2,0.,1.2,0.,1.2,,0.0,,0.0
1979-07-05 09:07:00.780 ,7,0,1.,1.2,0.,1.2,0.,1.2,,0.0,,0.0
1979-07-05 09:07:01.980 ,7,0,0.,1.2,0.,1.2,0.,1.2,,0.0,,0.0
1979-07-05 09:07:03.180 ,7,0,1.,1.2,1.,1.2,0.,1.2,,0.0,,0.0
1979-07-05 09:07:04.380 ,7,0,0.,1.2,0.,1.2,0.,1.2,,0.0,,0.0
1979-07-05 09:07:05.580 ,7,0,0.,1.2,0.,1.2,0.,1.2,,0.0,,0.0
1979-07-05 09:07:06.780 ,7,0,0.,1.2,0.,1.2,0.,1.2,,0.0,,0.0
1979-07-05 09:07:07.980 ,7,0,0.,1.2,0.,1.2,0.,1.2,,0.0,,0.0
1979-07-05 09:07:09.180 ,7,0,0.,1.2,0.,1.2,0.,1.2,,0.0,,0.0
1979-07-05 09:07:10.380 ,7,0,0.,1.2,0.,1.2,0.,1.2,,0.0,,0.0
1979-07-05 09:07:11.580 ,3,0,0.,1.2,0.,1.2,0.,1.2,,0.0,,0.0
1979-07-05 09:07:12.780 ,3,0,1.,1.2,0.,1.2,0.,1.2,,0.0,,0.0
1979-07-05 09:07:13.980 ,3,0,0.,1.2,0.,1.2,0.,1.2,,0.0,,0.0
1979-07-05 09:07:15.180 ,3,0,0.,1.2,0.,1.2,0.,1.2,,0.0,,0.0
1979-07-05 09:07:16.380 ,3,0,0.,1.2,0.,1.2,0.,1.2,,0.0,,0.0
1979-07-05 09:07:17.580 ,3,0,0.,1.2,0.,1.2,0.,1.2,,0.0,,0.0
1979-07-05 09:07:18.780 ,3,0,0.,1.2,0.,1.2,0.,1.2,,0.0,,0.0
1979-07-05 09:07:19.980 ,3,0,1.,1.2,0.,1.2,0.,1.2,,0.0,,0.0
1979-07-05 09:07:21.180 ,3,0,0.,1.2,0.,1.2,0.,1.2,,0.0,,0.0
1979-07-05 09:07:22.380 ,3,0,0.,1.2,0.,1.2,0.,1.2,,0.0,,0.0
1979-07-05 09:07:23.580 ,3,0,0.,1.2,0.,1.2,0.,1.2,,0.0,,0.0
1979-07-05 09:07:24.780 ,3,0,0.,1.2,0.,1.2,0.,1.2,,0.0,,0.0
1979-07-05 09:07:25.980 ,3,0,0.,1.2,0.,1.2,0.,1.2,,0.0,,0.0
1979-07-05 09:07:27.180 ,3,0,0.,1.2,0.,1.2,0.,1.2,,0.0,,0.0
1979-07-05 09:07:28.380 ,3,0,0.,1.2,0.,1.2,0.,1.2,,0.0,,0.0
1979-07-05 09:07:29.580 ,3,0,0.,1.2,0.,1.2,0.,1.2,,0.0,,0.0
1979-07-05 09:07:30.780 ,3,0,0.,1.2,0.,1.2,0.,1.2,,0.0,,0.0
1979-07-05 09:07:31.980 ,3,0,2.,1.2,0.,1.2,0.,1.2,,0.0,,0.0
1979-07-05 09:07:33.180 ,3,0,0.,1.2,0.,1.2,0.,1.2,,0.0,,0.0
1979-07-05 09:07:34.380 ,3,0,0.,1.2,0.,1.2,0.,1.2,,0.0,,0.0
1979-07-05 09:07:35.580 ,0,0,0.,1.2,0.,1.2,0.,1.2,,0.0,,0.0
1979-07-05 09:07:36.780 ,0,0,1.,1.2,1.,1.2,0.,1.2,,0.0,,0.0
1979-07-05 09:07:37.980 ,0,0,0.,1.2,0.,1.2,0.,1.2,,0.0,,0.0
1979-07-05 09:07:39.180 ,0,0,0.,1.2,0.,1.2,0.,1.2,,0.0,,0.0
1979-07-05 09:07:40.380 ,0,0,1.,1.2,1.,1.2,0.,1.2,,0.0,,0.0
1979-07-05 09:07:41.580 ,0,0,0.,1.2,0.,1.2,0.,1.2,,0.0,,0.0
1979-07-05 09:07:42.780 ,0,0,1.,1.2,1.,1.2,0.,1.2,,0.0,,0.0
1979-07-05 09:07:43.980 ,0,0,0.,1.2,0.,1.2,0.,1.2,,0.0,,0.0
1979-07-05 09:07:45.180 ,0,0,0.,1.2,0.,1.2,0.,1.2,,0.0,,0.0
1979-07-05 09:07:46.380 ,0,0,0.,1.2,0.,1.2,0.,1.2,,0.0,,0.0
1979-07-05 09:07:47.580 ,0,0,1.,1.2,1.,1.2,0.,1.2,,0.0,,0.0
1979-07-05 09:07:48.780 ,0,0,1.,1.2,0.,1.2,0.,1.2,,0.0,,0.0
1979-07-05 09:07:49.980 ,0,0,0.,1.2,0.,1.2,0.,1.2,,0.0,,0.0
1979-07-05 09:07:51.180 ,0,0,0.,1.2,0.,1.2,0.,1.2,,0.0,,0.0
1979-07-05 09:07:52.380 ,0,0,1.,1.2,1.,1.2,0.,1.2,,0.0,,0.0
1979-07-05 09:07:53.580 ,0,0,0.,1.2,0.,1.2,0.,1.2,,0.0,,0.0
1979-07-05 09:07:54.780 ,0,0,0.,1.2,0.,1.2,0.,1.2,,0.0,,0.0
1979-07-05 09:07:55.980 ,0,0,0.,1.2,0.,1.2,0.,1.2,,0.0,,0.0
1979-07-05 09:07:57.180 ,0,0,1.,1.2,1.,1.2,0.,1.2,,0.0,,0.0
1979-07-05 09:07:58.380 ,0,0,1.,1.2,1.,1.2,0.,1.2,,0.0,,0.0
1979-07-05 09:07:59.580 ,4,0,0.,1.2,0.,1.2,0.,1.2,,0.0,,0.0
1979-07-05 09:08:00.780 ,4,0,0.,1.2,0.,1.2,0.,1.2,,0.0,,0.0
1979-07-05 09:08:01.980 ,4,0,0.,1.2,0.,1.2,0.,1.2,,0.0,,0.0
1979-07-05 09:08:03.180 ,4,0,1.,1.2,0.,1.2,0.,1.2,,0.0,,0.0
1979-07-05 09:08:04.380 ,4,0,1.,1.2,1.,1.2,0.,1.2,,0.0,,0.0
1979-07-05 09:08:05.580 ,4,0,1.,1.2,1.,1.2,0.,1.2,,0.0,,0.0
1979-07-05 09:08:06.780 ,4,0,0.,1.2,0.,1.2,0.,1.2,,0.0,,0.0
1979-07-05 09:08:07.980 ,4,0,1.,1.2,1.,1.2,1.,1.2,,0.0,,0.0
1979-07-05 09:08:09.180 ,4,0,1.,1.2,1.,1.2,1.,1.2,,0.0,,0.0
1979-07-05 09:08:10.380 ,4,0,0.,1.2,0.,1.2,0.,1.2,,0.0,,0.0
1979-07-05 09:08:11.580 ,4,0,0.,1.2,0.,1.2,0.,1.2,,0.0,,0.0
1979-07-05 09:08:12.780 ,4,0,0.,1.2,0.,1.2,0.,1.2,,0.0,,0.0